Vorticity
4 3 5 6 6 5 8 6 8 5 2 4 7 7 3 6 8 6 3 8 22 15 31 33 20 18 18 22 17 20 -0 8 22 11 24 34 23 25 -10 -25 37 39 29 10 13
7 4 6 6 5 8 7 7 8 3 5 5 7 7 5 1 5 4 9 8 19 22 33 17 15 19 19 21 16 16 19 12 6 15 25 11 22 34 20 14 24 4 4 21 17
6 3 6 4 8 10 8 6 7 2 9 7 5 5 0 6 3 2 15 15 19 30 19 10 14 25 25 17 22 9 17 23 11 11 -14 28 8 23 21 1 35 23 22 16 25
1 2 1 11 8 10 8 8 5 4 6 4 3 4 3 6 4 3 16 13 28 21 9 10 15 26 26 17 19 22 18 20 26 10 -13 -6 34 9 42 -17 -10 6 15 17 23
3 0 6 7 9 9 7 5 6 5 5 3 8 5 6 5 2 4 11 17 25 15 8 14 20 28 22 17 16 17 17 17 22 14 9 20 21 27 16 24 10 22 14 15 18
4 4 6 10 8 8 5 4 7 -0 11 5 7 3 8 4 3 8 7 18 26 12 7 10 19 33 20 13 14 16 12 15 24 12 16 25 -22 13 4 20 1 19 10 17 11
3 -0 7 7 8 7 8 7 3 9 7 9 5 2 5 4 5 11 3 34 20 10 8 10 16 32 21 13 13 9 7 23 17 13 18 22 -9 10 32 -2 11 19 17 16 10
4 0 4 6 10 12 6 7 2 11 5 8 5 5 6 4 3 10 12 24 16 10 8 8 15 33 25 9 13 13 17 22 9 8 19 17 31 19 -15 18 9 27 -3 18 13
3 6 12 7 7 8 4 6 5 9 6 6 5 6 4 5 5 10 15 20 18 9 8 9 13 34 32 9 8 7 17 11 10 9 23 23 -0 18 20 42 23 12 14 10 13
4 10 7 9 11 4 3 12 7 7 4 5 4 5 3 7 4 12 12 18 18 8 9 11 13 24 33 18 7 7 11 4 16 21 5 13 5 3 29 9 25 19 13 11 11
3 11 4 9 9 5 8 8 7 7 7 10 1 5 4 6 4 9 17 16 22 10 10 9 13 20 33 23 14 10 9 4 27 47 12 18 3 26 2 8 -35 52 6 13 7
5 7 -1 10 8 5 10 1 0 4 5 15 4 3 4 8 2 6 19 28 23 14 12 8 13 15 37 19 14 11 8 11 -0 -1 23 19 15 24 -17 21 17 31 11 18 8
5 10 5 10 7 4 10 6 2 3 4 6 4 5 7 8 3 7 12 26 20 18 15 9 11 13 36 22 11 13 6 18 -16 -1 23 7 19 55 -9 13 2 22 6 19 10
7 4 5 13 11 6 10 4 1 5 2 -6 2 -3 8 2 8 3 14 23 22 17 16 12 11 12 24 26 13 11 6 11 25 4 10 9 13 1 14 30 11 51 7 11 14
4 6 7 13 9 3 11 11 4 5 17 11 4 5 5 3 2 -0 12 17 14 22 20 8 9 14 18 32 15 13 6 8 17 9 13 13 1 26 -4 -19 24 12 13 14 6
0 5 4 10 8 10 10 6 10 4 6 4 5 8 9 3 5 3 13 17 17 17 22 13 10 5 22 33 15 13 8 8 17 12 12 15 -2 18 3 6 6 43 2 8 65
1 0 5 10 5 10 4 7 8 7 3 2 8 8 10 4 7 4 13 22 28 20 22 18 11 0 13 32 16 12 8 8 14 13 13 10 6 32 3 -2 7 5 41 19 -43
6 -0 13 11 7 10 4 0 9 6 5 8 8 8 9 4 7 3 15 17 16 19 21 23 10 13 16 39 9 10 10 6 12 14 8 15 15 19 28 -15 -18 43 22 31 12
4 3 11 13 8 12 8 6 4 11 13 8 5 8 11 4 7 5 14 11 28 19 27 26 11 -5 10 51 10 13 15 5 10 16 8 11 10 5 26 14 -33 35 28 6 6
15 5 18 5 9 6 13 5 9 10 5 3 7 9 13 7 7 11 13 11 20 17 21 16 6 6 5 34 5 2 17 14 10 14 14 12 10 17 12 24 -11 6 18 40 7
3 16 6 13 3 10 5 9 9 6 5 6 10 10 13 7 8 8 4 14 15 18 25 27 9 11 5 19 39 -2 12 14 9 6 15 13 8 12 24 3 -8 11 29 27 -13
6 6 9 9 2 6 5 12 8 3 7 10 8 9 13 9 8 8 10 15 18 14 26 29 12 2 4 22 47 12 4 9 11 8 13 6 6 6 18 25 11 8 33 25 -1
11 11 4 8 5 8 8 12 2 11 6 9 8 10 9 10 9 9 12 12 17 14 21 19 7 8 6 8 55 2 19 21 12 11 10 -2 12 5 10 13 28 -6 23 23 9
7 10 13 12 -1 11 11 3 4 3 8 7 14 13 7 10 7 7 10 12 16 15 26 34 11 6 4 5 41 -14 6 14 14 10 7 -0 13 2 11 8 12 9 12 21 6
9 6 0 5 7 6 8 9 1 6 13 4 17 11 8 9 10 10 8 11 13 17 23 36 11 3 5 5 11 40 4 6 14 16 6 7 10 -5 8 6 8 9 15 17 10
7 6 14 13 2 7 5 6 6 8 9 13 12 10 10 11 11 9 11 13 14 15 22 28 13 6 4 3 8 24 -11 10 12 15 15 2 24 13 -1 8 6 7 4 19 -1
3 9 4 6 9 8 6 7 10 3 8 16 9 11 10 9 9 10 11 14 14 15 18 30 29 9 1 6 11 14 38 10 13 10 1 16 7 5 16 10 2 13 3 6 11
Height
5836 5832 5827 5823 5817 5812 5805 5799 5792 5786 5780 5772 5763 5756 5746 5737 5726 5711 5695 5678 5658 5637 5615 5601 5591 5586 5582 5578 5574 5574 5575 5579 5586 5592 5601 5608 5613 5629 5645 5654 5661 5672 5687 5707 5722
5831 5827 5823 5818 5811 5805 5799 5793 5787 5780 5772 5765 5757 5748 5738 5727 5714 5699 5681 5663 5640 5620 5604 5594 5585 5578 5573 5569 5566 5565 5566 5574 5581 5584 5589 5597 5604 5614 5628 5643 5653 5665 5679 5694 5708
5827 5822 5817 5812 5806 5800 5793 5786 5780 5773 5766 5758 5751 5742 5731 5717 5702 5689 5669 5649 5628 5609 5596 5586 5579 5571 5564 5560 5559 5558 5562 5565 5570 5577 5582 5589 5596 5602 5619 5629 5646 5654 5663 5682 5699
5823 5817 5812 5806 5801 5794 5788 5781 5774 5766 5759 5752 5744 5735 5723 5707 5693 5676 5657 5636 5616 5601 5590 5579 5571 5564 5559 5554 5552 5553 5555 5557 5563 5568 5570 5578 5586 5595 5606 5620 5630 5643 5657 5672 5689
5819 5813 5807 5801 5794 5789 5783 5775 5769 5762 5754 5746 5738 5728 5714 5699 5685 5666 5647 5629 5609 5596 5587 5575 5563 5557 5553 5551 5549 5551 5551 5553 5556 5563 5568 5573 5581 5588 5599 5610 5623 5632 5647 5661 5677
5816 5811 5803 5795 5789 5784 5777 5770 5764 5757 5749 5740 5731 5719 5705 5691 5675 5656 5640 5623 5604 5593 5583 5572 5562 5554 5549 5548 5548 5549 5549 5551 5554 5559 5565 5571 5575 5583 5596 5606 5616 5627 5641 5654 5668
5812 5807 5799 5791 5785 5779 5773 5765 5758 5751 5743 5734 5724 5712 5700 5687 5670 5651 5632 5619 5602 5591 5581 5570 5561 5552 5547 5546 5547 5548 5549 5549 5552 5557 5562 5566 5574 5585 5591 5599 5611 5624 5638 5650 5662
5808 5803 5796 5787 5780 5773 5767 5760 5753 5745 5737 5728 5717 5705 5694 5680 5665 5649 5625 5607 5598 5589 5580 5570 5559 5551 5546 5545 5546 5547 5548 5549 5552 5557 5561 5567 5575 5581 5588 5597 5608 5619 5634 5647 5658
5803 5797 5791 5783 5775 5767 5762 5755 5747 5739 5731 5720 5710 5699 5686 5669 5653 5640 5627 5611 5596 5586 5579 5570 5558 5550 5546 5545 5547 5547 5548 5550 5554 5555 5560 5567 5573 5580 5586 5592 5605 5616 5629 5642 5653
5798 5791 5785 5778 5770 5762 5755 5749 5742 5734 5725 5715 5704 5693 5680 5672 5655 5637 5619 5604 5594 5584 5577 5569 5558 5549 5545 5544 5546 5547 5548 5550 5553 5555 5559 5565 5571 5578 5584 5591 5600 5613 5624 5634 5649
5792 5786 5780 5773 5765 5757 5751 5744 5738 5729 5719 5711 5701 5688 5675 5657 5647 5631 5616 5603 5592 5583 5576 5568 5558 5550 5545 5544 5545 5547 5547 5549 5553 5557 5561 5565 5569 5576 5582 5590 5599 5609 5617 5629 5644
5787 5781 5774 5768 5760 5752 5745 5738 5732 5726 5715 5706 5695 5681 5671 5662 5646 5628 5612 5602 5590 5582 5573 5567 5557 5549 5545 5543 5544 5546 5547 5549 5552 5554 5560 5565 5570 5576 5584 5589 5595 5600 5611 5625 5639
5782 5776 5770 5763 5755 5749 5742 5736 5728 5720 5712 5702 5692 5679 5670 5658 5645 5630 5617 5601 5589 5581 5572 5565 5557 5549 5544 5542 5544 5546 5548 5550 5552 5555 5560 5565 5572 5579 5586 5589 5597 5604 5612 5623 5636
5779 5771 5765 5758 5752 5744 5736 5731 5723 5715 5706 5697 5685 5676 5664 5651 5637 5622 5606 5596 5586 5578 5570 5563 5556 5550 5544 5542 5543 5546 5547 5550 5553 5556 5561 5567 5573 5577 5583 5590 5600 5606 5613 5622 5633
5774 5767 5759 5750 5744 5738 5732 5725 5718 5710 5700 5689 5679 5665 5656 5646 5633 5617 5606 5591 5581 5575 5568 5562 5555 5549 5544 5542 5543 5546 5548 5550 5553 5556 5561 5567 5574 5578 5583 5590 5597 5605 5615 5626 5636
5768 5762 5754 5747 5739 5734 5728 5721 5713 5706 5694 5686 5674 5664 5653 5641 5627 5611 5600 5586 5577 5571 5566 5560 5554 5550 5545 5542 5543 5545 5549 5551 5553 5557 5563 5567 5572 5575 5582 5588 5593 5603 5615 5628 5637
5762 5756 5748 5741 5735 5729 5723 5716 5708 5699 5691 5682 5671 5662 5650 5639 5625 5614 5603 5591 5580 5569 5561 5558 5554 5550 5547 5544 5545 5547 5550 5552 5556 5559 5564 5569 5575 5576 5582 5588 5595 5602 5611 5620 5630
5756 5749 5742 5736 5730 5724 5718 5711 5703 5694 5685 5676 5664 5653 5645 5636 5623 5610 5597 5585 5574 5567 5562 5557 5555 5551 5548 5546 5546 5548 5552 5554 5556 5560 5565 5569 5575 5580 5582 5589 5596 5601 5612 5621 5630
5750 5743 5736 5730 5725 5719 5713 5705 5698 5690 5682 5672 5662 5652 5641 5629 5619 5606 5594 5585 5574 5566 5561 5556 5554 5552 5549 5548 5549 5549 5552 5556 5557 5561 5567 5571 5575 5578 5584 5589 5597 5602 5607 5617 5626
5743 5737 5730 5725 5720 5714 5708 5701 5692 5684 5675 5667 5657 5649 5637 5627 5615 5601 5590 5582 5572 5564 5558 5555 5554 5552 5550 5549 5549 5550 5552 5557 5559 5563 5568 5573 5578 5582 5587 5591 5598 5601 5607 5615 5625
5736 5731 5726 5721 5715 5710 5702 5695 5686 5678 5670 5662 5652 5642 5633 5624 5612 5599 5590 5581 5569 5563 5557 5554 5554 5554 5550 5548 5548 5552 5553 5556 5560 5564 5566 5574 5579 5582 5587 5593 5599 5604 5608 5616 5625
5731 5726 5721 5716 5711 5703 5696 5689 5683 5674 5665 5657 5647 5638 5629 5619 5608 5598 5587 5577 5569 5562 5557 5554 5554 5553 5551 5548 5547 5551 5553 5557 5562 5566 5568 5571 5578 5581 5587 5593 5598 5604 5608 5614 5625
5725 5721 5717 5711 5705 5699 5691 5684 5677 5668 5659 5650 5643 5634 5625 5616 5605 5594 5586 5577 5568 5563 5557 5554 5554 5554 5552 5551 5549 5552 5554 5557 5561 5565 5569 5573 5578 5582 5587 5593 5598 5604 5610 5616 5625
5718 5714 5711 5705 5699 5693 5686 5679 5671 5662 5654 5646 5637 5629 5622 5611 5600 5592 5583 5574 5567 5562 5557 5553 5553 5554 5553 5552 5551 5552 5554 5557 5560 5565 5567 5571 5576 5583 5587 5593 5599 5605 5609 5615 5623
5713 5709 5704 5698 5693 5687 5680 5673 5664 5658 5651 5642 5634 5625 5616 5606 5597 5588 5580 5572 5566 5561 5556 5552 5552 5553 5553 5552 5552 5552 5555 5557 5560 5563 5566 5570 5576 5581 5587 5591 5598 5605 5611 5616 5621
5707 5702 5698 5693 5688 5681 5674 5667 5659 5651 5645 5637 5629 5620 5611 5603 5595 5585 5577 5570 5565 5560 5555 5551 5551 5552 5552 5551 5551 5551 5554 5557 5559 5562 5565 5568 5573 5578 5584 5590 5597 5604 5610 5615 5620
5699 5697 5693 5688 5682 5676 5668 5661 5653 5646 5639 5630 5622 5613 5604 5598 5590 5582 5575 5568 5563 5558 5553 5549 5549 5550 5551 5551 5551 5551 5553 5556 5559 5561 5563 5568 5572 5577 5583 5589 5594 5601 5608 5614 5620